Theta_e
323 321 320 319 318 318 318 318 318 318 316 314 312 312 312 312 312 312 312 311 308 307 307 308 308 307 311 319 322 321 323 323 326 326 327 327 324 325 326 327 325 323 321
321 320 318 318 317 317 317 317 318 318 316 314 313 312 312 311 311 312 311 311 309 307 306 307 307 307 307 309 316 322 322 324 325 326 329 328 326 325 325 327 326 324 322
316 317 318 318 317 317 317 317 317 317 317 316 314 312 312 312 312 311 311 309 310 309 307 306 306 306 307 307 307 315 321 322 322 324 327 328 328 326 326 326 325 324 324
317 315 317 317 317 317 317 317 316 316 317 316 315 313 312 311 311 311 310 310 309 310 309 308 305 305 305 306 306 307 309 319 321 321 321 322 327 327 326 326 326 326 325
314 311 312 314 315 317 316 317 316 316 316 316 315 314 312 311 312 311 310 310 310 309 309 309 307 304 304 304 304 304 305 307 312 321 321 321 321 322 327 326 326 326 326
313 312 313 313 313 314 314 314 314 315 315 315 315 314 313 312 311 311 311 310 309 310 308 308 308 306 306 304 303 303 303 303 305 307 314 320 319 320 321 323 325 326 326
310 309 310 310 310 310 309 307 309 311 312 313 314 315 315 313 312 311 311 311 310 309 308 309 309 308 307 305 304 303 302 303 302 303 306 307 310 317 318 320 320 321 324
309 309 307 307 307 307 306 306 307 309 310 311 312 313 314 314 313 313 311 311 310 309 308 308 309 308 307 306 305 303 303 302 301 302 302 306 307 307 310 314 319 320 319
308 307 306 307 307 307 307 307 307 307 308 309 309 311 312 312 313 312 313 312 311 310 308 308 308 307 305 305 305 304 303 303 302 301 301 301 304 306 307 308 310 316 320
306 305 305 306 306 305 306 306 305 306 306 306 307 307 308 310 311 311 311 312 311 310 309 308 308 306 304 304 304 304 303 303 303 302 300 299 299 304 304 305 306 307 309
305 304 304 304 304 304 305 305 305 305 305 305 305 306 307 307 308 308 309 310 311 310 309 308 308 305 304 304 303 302 302 302 302 302 302 299 298 300 305 304 304 305 306
303 303 303 304 304 304 304 303 304 303 303 302 302 302 301 301 302 301 301 305 307 308 308 307 305 304 304 303 303 302 301 301 300 300 300 299 298 298 302 305 305 304 305
302 302 303 303 303 303 303 303 302 301 302 301 300 299 298 298 299 298 298 298 299 301 303 305 301 302 301 302 302 301 300 299 297 296 296 297 297 297 299 301 303 304 305
301 301 302 302 302 301 300 300 300 300 298 298 298 297 296 296 296 296 295 295 296 297 297 298 300 301 301 300 301 300 299 297 296 295 299 301 302 300 299 302 303 303 303
300 300 300 300 299 298 298 297 297 297 296 296 295 295 295 295 295 295 295 294 294 295 296 297 297 298 299 299 298 298 298 298 297 296 295 299 300 301 302 302 302 302 302
299 299 298 298 298 297 297 296 295 295 295 294 295 294 294 294 294 294 294 295 295 295 295 295 294 295 295 295 296 296 296 296 295 295 295 296 297 298 299 300 300 300 301
298 297 297 296 296 296 295 295 294 294 295 294 294 294 293 293 293 292 292 292 292 293 293 293 293 293 293 293 294 294 294 294 294 294 294 293 293 293 296 299 299 298 298
297 296 296 295 295 295 294 294 293 293 293 293 293 293 293 292 292 291 291 291 291 291 291 292 292 292 292 293 293 293 294 294 294 294 293 293 293 293 292 292 295 298 298
295 294 294 294 293 292 291 291 290 291 291 291 291 290 290 290 289 289 290 290 290 290 290 290 290 291 291 291 291 292 292 292 293 293 293 293 293 293 292 292 291 292 294
292 291 290 290 290 289 289 289 289 289 289 289 289 289 289 289 289 289 289 289 288 288 288 288 289 289 289 290 290 290 291 291 292 292 292 292 292 292 292 292 292 291 290
290 290 289 289 289 289 288 288 287 287 287 287 288 288 288 288 288 287 286 286 286 286 287 287 288 289 289 290 290 291 291 291 291 291 292 292 292 292 292 291 291 291 290
289 289 289 288 288 288 287 287 286 285 284 285 286 286 287 287 287 286 285 285 284 284 285 285 287 287 288 289 289 290 290 290 290 290 290 290 291 291 292 292 292 292 292
289 289 288 288 288 287 287 286 285 284 283 284 285 286 286 286 286 286 286 286 285 285 284 284 284 285 286 287 287 288 289 289 289 289 289 289 289 290 290 290 291 291 291
289 288 288 288 287 287 286 285 284 283 283 283 284 284 285 285 285 285 285 285 284 284 284 285 285 285 285 285 286 286 287 287 288 288 289 288 288 288 289 289 289 289 290
289 288 288 287 286 285 284 283 282 281 281 282 282 283 283 283 283 283 283 283 284 284 284 285 285 285 284 284 284 285 286 286 287 287 287 287 288 287 288 287 287 287 287
288 288 287 286 285 284 284 282 281 280 280 281 281 282 282 283 283 283 283 283 283 284 283 283 284 285 285 285 285 284 284 285 285 286 287 287 288 288 288 288 287 287 287
Wind_Speed
8 10 11 12 13 13 14 14 14 14 14 13 13 12 11 11 11 10 12 17 15 13 13 13 14 15 15 17 19 19 21 22 24 24 26 26 25 24 25 23 22 21 21
8 10 11 12 13 13 14 15 15 16 15 14 14 14 14 13 13 13 11 17 17 15 14 15 16 17 18 17 18 20 20 20 19 26 27 27 27 28 28 26 25 23 22
10 12 12 13 15 16 18 18 18 19 19 18 18 18 17 16 15 14 14 12 16 16 14 14 15 17 18 19 17 19 22 22 22 21 20 29 29 30 30 29 28 28 25
11 14 14 15 17 19 20 20 21 21 21 22 22 21 19 20 18 18 17 15 15 15 16 16 13 14 17 18 18 18 18 21 23 23 25 27 23 29 31 32 31 31 29
12 16 18 21 22 21 23 23 24 24 24 25 26 27 26 24 23 22 21 20 20 21 16 18 16 14 15 17 19 19 18 18 20 24 25 22 21 29 24 27 33 34 34
14 19 20 21 22 20 22 24 26 27 29 30 31 31 32 31 29 27 25 25 24 23 20 21 19 17 14 16 16 19 21 20 19 21 22 28 24 24 28 29 26 31 33
23 24 18 17 19 20 23 27 29 29 30 30 31 33 34 36 36 35 32 29 27 26 25 21 21 16 16 16 17 17 17 21 22 20 21 25 26 26 25 27 33 34 26
21 20 20 20 20 22 25 26 26 29 30 28 30 33 35 36 36 37 40 38 35 33 30 26 24 19 18 13 14 16 17 17 20 23 22 22 25 25 23 25 30 31 33
21 20 20 20 21 21 23 24 25 26 31 31 29 31 33 34 32 34 33 38 36 34 36 32 28 26 21 17 19 18 19 16 15 18 22 23 22 25 24 23 23 29 30
20 21 21 21 21 21 22 23 22 25 26 31 29 30 34 37 38 38 41 35 33 34 31 33 30 27 22 19 18 19 19 21 20 18 21 22 23 24 25 24 23 24 25
20 21 22 23 27 22 20 19 19 18 19 21 23 23 24 26 27 25 28 29 32 31 30 32 30 24 21 19 17 16 21 19 18 21 22 23 22 23 25 25 23 22 23
22 22 23 21 20 18 17 17 17 16 17 17 16 15 13 13 17 14 18 23 26 27 27 23 25 24 19 18 18 20 19 20 20 20 24 25 24 22 24 25 23 22 23
23 23 20 18 17 17 17 17 17 20 13 12 11 13 14 19 21 21 21 20 17 16 8 29 18 21 19 20 17 20 20 22 24 23 24 24 24 24 26 27 26 23 23
23 20 19 19 19 20 19 16 11 13 16 19 23 19 17 14 14 19 18 15 17 16 20 17 17 19 25 16 18 19 16 17 19 22 23 22 23 24 25 27 27 27 25
22 21 21 20 16 14 13 14 14 19 20 22 21 14 14 14 14 12 11 11 9 10 17 14 15 15 16 17 16 15 14 16 17 18 22 24 22 23 25 27 27 27 28
21 20 19 17 15 17 20 24 24 22 20 16 14 12 13 13 14 17 17 16 14 13 20 18 17 17 17 15 16 16 17 19 19 21 21 24 26 24 23 26 28 29 28
19 20 17 20 22 25 28 21 17 18 18 17 16 17 18 18 18 19 20 20 22 21 25 25 21 20 21 21 22 22 21 22 22 25 26 27 30 31 28 28 28 29 29
18 19 20 22 21 19 19 19 20 17 18 19 19 20 21 22 22 21 21 21 22 22 24 27 25 25 24 23 24 23 24 23 23 23 25 26 27 29 31 35 34 33 33
18 19 21 22 23 23 23 22 21 22 20 21 22 24 24 24 23 22 21 22 21 22 23 26 27 25 26 26 26 25 26 26 26 25 26 25 22 25 32 37 39 41 40
19 20 20 21 21 21 22 22 18 19 22 23 24 24 24 24 24 23 21 21 21 22 23 26 28 28 27 26 26 27 28 27 27 25 25 28 29 29 27 31 36 39 41
19 19 19 20 20 21 22 21 23 23 22 23 24 25 26 25 26 30 30 28 24 23 24 26 28 29 28 26 26 25 26 25 25 23 24 27 26 27 31 31 33 38 38
19 19 20 21 21 21 24 28 30 30 26 25 25 25 26 27 26 25 25 29 29 24 24 26 29 29 26 25 23 24 24 24 26 26 27 31 27 29 29 28 24 24 27
19 21 21 21 21 21 25 29 34 33 26 25 25 26 26 25 26 25 25 25 21 24 25 25 28 28 28 26 24 24 25 24 23 21 22 26 23 26 28 27 33 34 30
21 22 21 20 21 22 26 32 34 31 24 24 24 25 26 25 25 25 22 23 24 23 22 23 25 26 24 24 25 28 27 27 27 24 22 27 26 28 27 28 30 31 34
22 22 19 21 23 24 25 29 31 26 22 24 23 23 23 25 26 27 24 23 23 23 22 24 27 29 31 31 30 30 28 24 25 26 25 28 31 31 28 30 30 30 32
22 21 20 23 24 25 24 28 26 26 25 23 22 23 23 23 24 22 23 24 24 21 22 25 25 24 22 24 25 31 29 30 31 29 22 24 26 25 25 24 25 25 26
Wind_Direction
335 337 329 329 323 320 318 315 311 310 307 307 298 291 288 282 278 270 264 276 280 277 276 276 278 280 271 262 260 257 259 259 243 235 242 232 228 227 226 227 229 227 229
334 339 325 323 324 319 311 307 302 300 299 291 289 285 276 268 266 261 263 279 282 276 269 272 272 271 272 264 258 254 256 255 255 245 231 232 229 226 226 225 228 231 232
325 320 315 317 317 313 311 310 304 302 300 298 293 290 281 274 267 255 257 257 272 278 267 254 262 266 265 266 259 252 250 253 252 250 250 238 227 229 227 226 228 230 231
318 315 309 306 303 301 305 301 299 295 291 289 287 284 280 274 267 258 253 251 244 257 266 264 250 262 263 262 261 257 250 247 249 251 254 253 234 231 229 227 230 232 232
301 311 313 310 303 300 298 296 294 290 288 287 285 283 277 271 265 263 257 250 240 229 244 258 256 261 263 263 264 263 257 251 249 247 247 252 251 255 234 233 233 234 234
307 314 311 307 302 299 295 292 288 289 284 283 284 281 275 272 268 261 258 253 249 241 230 241 247 254 254 253 262 263 264 259 248 248 250 251 246 241 246 247 241 236 235
317 314 307 297 298 297 291 291 291 287 284 283 284 278 275 272 264 258 256 254 252 248 241 234 230 237 252 251 253 259 267 266 263 251 245 254 259 254 246 245 251 250 246
316 314 304 307 304 300 297 294 291 288 285 282 279 279 280 275 265 259 251 246 245 242 242 237 233 232 221 238 246 257 262 269 270 264 255 248 255 258 258 249 244 246 254
316 314 312 305 301 299 296 291 289 288 288 285 281 278 281 274 279 267 261 243 243 243 233 233 232 224 223 220 237 244 254 267 280 280 268 259 253 257 257 255 248 244 242
309 312 309 308 305 305 300 297 294 284 287 287 288 278 276 280 278 282 274 273 251 240 242 232 233 224 224 224 220 220 240 264 270 286 276 263 257 260 261 257 255 250 247
311 313 311 306 307 304 298 298 302 300 298 293 292 294 286 280 284 294 286 280 264 246 236 230 240 229 229 230 226 230 242 245 256 279 279 265 256 254 259 265 260 256 247
312 310 310 302 303 300 302 305 302 300 285 304 300 306 313 312 288 302 301 287 279 272 250 240 233 241 237 238 237 239 235 246 259 260 261 256 258 255 254 253 256 253 254
313 312 309 309 306 302 302 290 289 284 286 285 300 299 296 288 287 292 295 300 298 273 278 242 237 236 252 242 243 241 246 241 243 242 248 252 252 255 253 254 253 250 247
316 316 314 310 305 293 292 297 306 289 289 286 288 286 307 303 301 297 304 300 298 293 292 288 257 254 244 251 244 243 241 251 244 242 239 241 243 246 252 252 252 254 254
321 318 313 312 304 298 282 283 284 294 297 296 291 294 296 295 295 283 286 284 285 288 287 284 287 286 273 247 250 252 252 255 256 246 247 238 233 235 237 242 247 249 250
316 314 310 304 296 286 286 290 297 293 292 287 292 283 286 289 288 289 285 274 262 263 276 285 284 275 264 264 262 263 254 250 265 257 248 245 242 237 238 235 237 240 245
315 307 295 291 293 292 296 299 300 299 291 288 287 286 287 289 287 285 281 276 274 271 273 279 278 275 273 268 266 262 261 261 259 259 260 253 251 246 241 237 233 232 236
308 310 308 306 310 306 310 307 304 297 296 292 290 292 292 291 289 287 281 276 273 272 275 279 276 276 274 271 269 266 263 261 260 260 260 258 254 255 253 249 247 242 241
315 313 310 310 309 307 305 303 299 296 292 289 290 290 289 290 288 284 281 280 277 276 276 277 277 273 271 270 270 266 264 262 259 256 257 256 249 245 250 257 254 251 248
311 311 309 307 306 306 305 302 295 298 298 292 289 286 285 284 284 284 280 280 280 280 276 275 274 273 269 267 264 266 266 263 262 259 257 255 256 261 257 256 260 259 257
312 312 311 309 309 308 304 299 298 304 302 296 289 285 284 282 277 277 282 280 277 277 274 273 273 272 270 268 264 264 267 267 264 261 260 258 260 260 260 262 261 265 266
312 313 313 311 311 310 305 303 300 302 303 299 293 289 286 284 284 285 285 284 285 275 273 270 271 275 274 276 275 274 276 274 272 261 263 265 261 263 258 254 257 269 270
313 313 312 311 311 311 307 301 298 301 301 298 295 291 288 283 284 284 283 282 277 281 277 268 267 265 266 265 268 268 267 267 266 264 261 265 262 260 258 255 252 253 256
312 312 311 312 311 310 307 301 302 309 303 297 294 291 289 287 285 285 286 282 279 276 272 270 267 269 268 269 264 261 266 267 265 264 257 262 259 261 262 260 258 258 256
312 312 310 311 307 304 305 306 312 314 307 300 298 293 289 287 284 280 284 279 280 278 276 275 273 267 267 265 264 266 262 268 267 263 258 260 263 264 265 266 267 264 260
312 311 304 311 312 315 312 314 314 317 309 310 306 300 296 293 287 284 280 279 280 282 286 281 276 275 277 268 262 254 254 256 259 264 263 260 260 260 267 269 274 274 269